GFSFLT2_prec_cthk_333.txt.gz
RH
30 23 17 12 7 7 8 10 15 22 25 26 27 26 24 21 21 20 24 31 34 36 34 29 27 28 29 27 27 31 32 45
18 16 15 10 9 8 9 10 11 13 15 16 15 12 10 10 9 9 8 10 16 22 25 32 38 34 31 31 32 28 40 56
15 14 13 14 15 10 12 10 10 10 12 9 11 10 11 10 7 7 6 6 6 6 6 7 16 25 31 35 36 38 40 49
17 15 14 14 15 15 14 13 13 13 13 12 12 12 12 13 12 11 12 12 12 12 11 12 12 13 16 20 29 36 43 46
18 13 12 14 13 18 18 16 15 13 12 15 15 15 18 19 20 20 19 17 18 21 19 18 18 18 17 18 15 19 34 39
16 14 11 13 16 18 18 18 17 17 18 20 20 20 23 24 25 24 24 24 23 23 24 25 25 22 20 19 18 19 24 28
16 16 16 14 16 16 16 18 21 21 21 20 21 22 22 24 25 27 28 30 29 28 26 27 28 29 28 23 22 24 21 21
16 17 16 15 16 18 19 21 23 22 23 24 24 23 24 27 26 28 29 28 30 31 31 29 27 28 33 34 34 31 30 24
17 18 18 18 19 20 21 25 25 24 23 20 21 24 24 27 24 24 28 28 28 28 28 28 28 29 30 34 35 38 38 36
18 18 20 21 21 24 25 23 25 26 24 21 20 20 21 26 26 21 26 27 24 23 24 26 29 30 30 38 38 39 44 43
18 19 20 20 20 22 20 20 23 22 23 20 16 18 18 24 21 21 24 22 20 20 22 23 29 32 35 36 36 40 44 49
21 20 19 19 19 19 22 23 22 23 21 18 17 19 19 21 22 22 21 22 21 21 22 24 30 33 33 35 36 43 46 49
19 18 19 19 19 23 23 22 22 23 20 17 17 17 18 20 25 24 22 26 27 27 24 28 31 31 34 36 42 46 50 54
18 18 18 18 21 22 22 23 24 24 21 18 20 22 25 27 25 25 26 28 30 31 28 31 35 34 36 41 43 45 58 51
17 17 18 18 23 23 22 24 24 26 26 28 28 30 33 34 34 31 30 30 32 33 33 32 36 36 38 45 45 47 47 55
17 17 19 20 21 24 27 29 33 38 37 35 35 39 41 41 38 36 35 37 37 37 35 34 37 43 47 49 50 50 48 47
18 20 20 21 21 27 32 35 39 44 40 38 41 45 45 43 43 44 42 41 41 39 38 44 51 53 51 50 50 51 49 47
21 20 22 23 24 29 36 39 46 51 51 51 54 54 51 51 51 48 45 46 51 52 50 53 54 55 53 51 49 46 43 41
24 24 26 28 31 33 37 46 55 59 58 57 59 59 63 59 55 51 53 63 64 59 57 56 54 51 44 38 36 38 34 32
26 28 31 36 38 38 45 57 57 58 62 62 65 70 64 60 58 62 70 70 64 58 51 47 46 44 41 39 36 36 33 32

GFSFLT2_prec_cthk_336.txt.gz
RH
21 14 10 8 7 7 8 10 14 18 20 20 20 16 13 12 11 11 11 12 17 25 27 32 34 30 28 27 26 24 29 35
17 15 12 9 8 8 9 10 11 11 10 10 11 11 9 8 7 7 8 8 8 7 7 10 19 27 31 33 31 35 43 43
17 14 13 14 12 10 12 13 14 13 13 12 11 11 12 13 13 13 13 14 15 14 13 13 12 16 19 25 36 34 42 41
15 14 13 16 16 15 15 14 10 11 12 14 15 16 19 19 20 19 19 16 19 22 19 18 15 15 15 14 18 34 41 43
15 10 14 14 16 19 17 15 15 15 16 18 18 18 19 21 22 23 23 21 20 23 22 23 23 18 16 17 16 24 26 28
15 12 12 15 18 17 17 17 18 17 20 22 23 22 24 23 24 23 23 24 24 24 25 25 28 28 23 21 21 20 17 26
15 14 12 15 16 16 18 20 21 21 19 21 23 23 24 24 25 26 24 23 24 24 25 27 25 25 26 26 27 29 29 24
16 16 15 16 16 17 19 21 21 19 19 21 21 22 23 22 21 22 24 21 21 21 22 23 25 25 23 25 27 31 33 35
17 17 16 15 16 19 20 22 21 20 16 15 15 17 18 19 17 18 19 18 15 15 17 18 21 23 22 24 27 30 35 38
17 18 15 18 16 18 19 20 20 19 16 13 13 13 17 19 16 16 17 15 13 13 14 16 19 22 23 25 25 29 34 36
17 18 18 17 17 17 17 18 19 19 18 15 17 14 18 20 16 17 20 19 19 19 18 17 20 23 24 25 27 29 32 37
18 18 18 18 18 16 17 19 19 20 18 14 18 18 18 22 21 21 22 23 25 27 23 22 24 24 25 26 29 31 37 41
19 18 18 18 16 18 19 22 21 23 19 18 18 20 24 25 26 29 30 29 30 29 27 25 26 27 28 28 30 35 43 48
19 19 18 18 19 21 23 24 24 28 25 22 23 27 29 31 33 36 37 37 36 33 33 32 30 31 32 34 38 40 42 43
18 19 19 18 20 23 23 25 27 29 27 29 29 32 35 38 42 45 45 42 43 41 39 35 36 41 46 48 47 46 43 45
20 20 19 18 20 23 22 26 30 36 39 39 39 43 44 42 46 52 52 49 47 43 45 48 49 52 51 52 51 49 48 41
20 21 21 21 20 24 25 30 38 41 48 55 53 48 48 51 59 59 53 53 50 52 59 55 54 53 48 42 38 37 35 35
22 22 22 23 24 24 30 35 44 49 53 61 56 54 55 59 64 58 60 62 61 63 61 52 45 42 40 39 38 35 33 33
25 23 26 27 28 29 33 45 50 57 63 62 63 61 64 63 59 64 66 66 62 60 51 46 44 42 41 38 34 31 30 30
25 27 28 31 33 39 45 47 54 60 62 71 66 67 65 64 68 71 69 62 62 56 50 47 44 42 40 36 35 33 32 30

GFSFLT2_prec_cthk_339.txt.gz
RH
14 8 7 7 8 8 10 12 14 15 14 13 11 9 9 8 8 9 11 11 9 11 16 22 28 32 32 28 28 28 33 36
13 10 11 9 9 9 9 10 10 10 11 10 10 11 13 13 13 13 14 15 14 13 12 13 14 18 24 35 35 34 35 37
15 12 14 14 13 12 11 11 10 12 12 12 14 15 17 19 18 17 17 18 17 15 15 13 14 14 13 22 34 36 35 36
14 12 15 16 17 15 14 11 12 14 15 15 17 19 21 21 20 19 18 17 17 18 20 19 19 17 13 12 19 25 29 34
13 12 15 18 18 17 16 14 14 16 17 18 19 20 22 22 22 22 21 21 21 21 22 23 23 22 21 18 15 21 22 25
12 12 14 17 18 17 16 15 16 19 20 20 21 21 21 21 20 19 18 18 18 19 19 20 21 21 20 22 21 22 23 23
13 12 15 16 16 16 18 17 16 18 19 19 19 18 17 17 18 18 16 15 14 15 15 17 17 18 19 21 24 25 25 26
13 12 13 14 15 16 17 16 15 14 14 15 17 17 16 13 15 14 12 11 11 11 12 15 16 15 17 19 20 24 26 29
13 12 13 13 15 17 17 15 13 12 12 12 14 15 14 12 13 12 12 13 13 13 12 13 15 17 20 19 21 25 29 32
13 13 13 14 15 15 17 16 14 13 12 11 14 15 13 13 15 16 17 19 19 18 18 18 21 22 23 23 23 25 28 35
15 15 14 16 16 16 16 16 16 16 15 13 13 17 18 18 20 21 23 24 25 25 24 23 24 24 23 26 28 30 33 35
15 17 16 17 17 16 18 18 18 18 18 16 16 19 23 24 26 28 29 33 35 35 34 31 29 27 27 27 29 33 37 44
18 17 16 17 17 17 17 18 19 20 20 17 20 23 27 32 36 36 37 39 43 45 41 38 36 35 34 37 41 43 44 42
18 18 17 17 17 19 21 21 22 22 23 21 23 27 35 43 45 40 41 50 51 49 47 43 43 45 45 45 44 45 48 49
18 18 19 19 19 22 25 25 24 26 29 28 29 38 46 48 45 47 52 55 52 53 55 52 51 52 50 48 42 35 31 32
20 19 20 21 20 25 26 27 27 29 33 42 46 50 52 49 52 57 58 55 56 60 60 56 53 48 42 37 35 34 32 26
26 21 20 22 22 25 27 29 30 35 41 52 54 57 53 55 58 60 58 58 62 62 59 52 46 41 38 35 34 32 29 29
28 26 22 23 25 27 30 34 42 46 52 57 60 61 59 61 61 58 59 62 60 58 55 50 46 41 37 35 33 29 26 24
27 26 25 23 26 31 37 43 52 54 56 61 62 63 65 63 57 62 64 59 58 57 53 50 44 40 38 34 31 29 26 25
22 26 30 30 31 41 46 52 55 60 63 65 69 72 66 62 65 68 62 61 59 55 53 47 44 42 40 38 39 39 37 39

GFSFLT2_prec_cthk_342.txt.gz
RH
8 6 7 8 9 11 13 14 14 12 11 10 11 13 13 12 13 14 15 14 12 12 15 19 22 29 34 34 31 30 34 37
9 9 9 9 10 10 11 11 10 10 10 12 14 15 17 17 15 15 16 16 15 14 14 14 14 16 21 29 34 34 33 36
12 11 13 13 12 11 12 12 12 13 14 16 17 18 19 18 18 16 16 16 16 15 15 15 14 13 14 19 26 29 32 32
13 12 15 16 15 14 12 13 15 15 17 18 20 20 20 20 20 19 18 18 18 18 18 18 18 18 17 16 16 18 18 18
12 12 14 16 17 15 14 14 16 17 18 19 20 20 20 19 18 17 16 17 17 17 17 17 18 19 20 20 20 20 20 21
11 13 15 16 16 16 15 16 17 17 18 18 17 17 16 14 13 13 12 12 12 13 14 14 15 15 17 19 21 23 25 26
12 13 16 16 15 14 15 14 16 16 16 15 13 13 13 13 11 10 9 9 9 10 10 12 12 13 15 17 19 23 28 31
12 13 15 15 15 14 13 13 13 14 15 15 13 12 12 11 10 10 12 12 13 13 13 13 14 15 17 19 22 25 28 31
13 12 14 14 14 14 13 12 12 13 14 14 13 12 13 13 14 16 17 18 19 19 19 19 20 21 22 23 24 27 30 32
13 12 13 14 15 15 15 14 13 12 13 15 15 16 15 18 20 22 25 27 28 30 30 27 25 27 29 27 29 32 34 37
13 13 13 15 17 18 17 16 16 14 14 15 17 18 21 23 26 30 33 35 39 41 41 41 37 34 35 35 36 40 41 43
15 13 15 17 18 18 19 18 18 17 15 15 17 21 25 27 34 44 42 41 42 46 48 47 46 42 40 44 44 44 43 43
19 14 16 16 18 19 19 19 19 19 18 16 19 24 29 35 45 49 46 45 50 52 49 50 54 53 48 49 52 49 47 42
21 17 15 15 18 19 21 22 22 22 22 20 22 28 36 43 49 51 50 53 54 51 52 56 56 54 49 44 40 36 34 33
26 20 16 15 17 21 24 27 27 25 26 29 30 37 42 49 53 55 55 57 54 53 56 58 57 50 42 37 33 30 26 26
29 28 23 17 16 21 24 27 27 28 31 40 50 50 54 59 57 58 61 60 56 59 59 53 52 48 43 38 35 34 31 26
29 29 29 24 19 21 25 27 31 38 42 47 54 59 62 64 62 64 62 59 60 62 56 54 51 47 41 35 33 30 26 25
30 30 29 26 22 22 27 35 42 47 50 53 60 63 65 68 67 64 61 61 63 59 54 53 50 45 40 38 34 28 26 26
26 27 27 28 27 25 34 43 47 49 53 60 64 67 69 67 66 64 63 64 60 55 54 52 47 43 41 35 31 34 34 38
30 31 29 28 30 39 48 52 55 59 64 66 69 69 68 66 64 65 67 62 58 56 52 48 44 42 36 34 35 39 37 37